Time,TemperatureF,DewpointF,PressureIn,WindDirection,WindDirectionDegrees,WindSpeedMPH,WindSpeedGustMPH,Humidity,HourlyPrecipIn,Conditions,Clouds,dailyrainin,SoftwareType,DateUTC
2013-02-04 00:00:00,24.1,18.3,29.98,SW,235,0.3,0.4,78,0.00,,,0.00,WUHU216HW,2013-02-04 06:00:00,
2013-02-04 00:05:00,24.1,18.3,29.98,SE,130,0.4,0.7,78,0.00,,,0.00,WUHU216HW,2013-02-04 06:05:00,
2013-02-04 00:10:00,24.1,18.3,29.98,WNW,298,0.4,0.7,78,0.00,,,0.00,WUHU216HW,2013-02-04 06:10:00,
2013-02-04 00:15:00,24.1,18.3,29.97,North,3,0.8,1.1,78,0.00,,,0.00,WUHU216HW,2013-02-04 06:15:00,
2013-02-04 00:20:00,24.1,18.3,29.97,West,266,0.4,0.7,78,0.00,,,0.00,WUHU216HW,2013-02-04 06:20:00,
2013-02-04 00:25:00,24.1,18.3,29.97,WNW,293,0.7,0.7,78,0.00,,,0.00,WUHU216HW,2013-02-04 06:25:00,
2013-02-04 00:30:00,24.3,18.5,29.96,WSW,248,0.2,0.2,78,0.00,,,0.00,WUHU216HW,2013-02-04 06:30:00,
2013-02-04 00:35:00,24.3,18.5,29.96,WSW,248,0.2,0.2,78,0.00,,,0.00,WUHU216HW,2013-02-04 06:35:00,
2013-02-04 00:40:00,24.3,18.5,29.96,North,0,0.0,0.0,78,0.00,,,0.00,WUHU216HW,2013-02-04 06:40:00,
2013-02-04 00:45:00,24.5,18.6,29.96,North,0,0.0,0.0,78,0.00,,,0.00,WUHU216HW,2013-02-04 06:45:00,
2013-02-04 00:50:00,24.5,18.6,29.96,SSW,203,0.4,0.4,78,0.00,,,0.00,WUHU216HW,2013-02-04 06:50:00,
2013-02-04 00:55:00,24.5,18.6,29.96,South,180,0.2,0.2,78,0.00,,,0.00,WUHU216HW,2013-02-04 06:55:00,
2013-02-04 01:00:00,24.7,19.1,29.96,South,180,0.2,0.2,79,0.00,,,0.00,WUHU216HW,2013-02-04 07:00:00,
2013-02-04 01:05:00,24.8,19.3,29.96,North,0,0.0,0.0,79,0.00,,,0.00,WUHU216HW,2013-02-04 07:05:00,
2013-02-04 01:10:00,24.8,19.3,29.95,South,187,0.3,0.4,79,0.00,,,0.00,WUHU216HW,2013-02-04 07:10:00,
2013-02-04 01:15:00,24.8,19.3,29.95,SW,214,0.2,0.2,79,0.00,,,0.00,WUHU216HW,2013-02-04 07:15:00,
2013-02-04 01:20:00,24.8,19.3,29.95,North,0,0.0,0.0,79,0.00,,,0.00,WUHU216HW,2013-02-04 07:20:00,
2013-02-04 01:25:00,24.8,19.3,29.95,North,0,0.0,0.0,79,0.00,,,0.00,WUHU216HW,2013-02-04 07:25:00,
2013-02-04 01:30:00,24.8,19.3,29.95,North,0,0.0,0.0,79,0.00,,,0.00,WUHU216HW,2013-02-04 07:30:00,
2013-02-04 01:35:00,24.8,19.3,29.94,North,0,0.0,0.0,79,0.00,,,0.00,WUHU216HW,2013-02-04 07:35:00,
2013-02-04 01:40:00,24.8,19.3,29.94,North,0,0.0,0.0,79,0.00,,,0.00,WUHU216HW,2013-02-04 07:40:00,
2013-02-04 01:45:00,24.8,19.3,29.94,South,180,0.4,0.4,79,0.00,,,0.00,WUHU216HW,2013-02-04 07:45:00,
2013-02-04 01:50:00,25.0,19.4,29.94,South,180,0.2,0.2,79,0.00,,,0.00,WUHU216HW,2013-02-04 07:50:00,
2013-02-04 01:55:00,25.2,19.6,29.93,North,0,0.0,0.0,79,0.00,,,0.00,WUHU216HW,2013-02-04 07:55:00,
2013-02-04 02:00:00,25.4,19.8,29.93,North,0,0.0,0.0,79,0.00,,,0.00,WUHU216HW,2013-02-04 08:00:00,
2013-02-04 02:05:00,25.6,20.0,29.93,North,0,0.0,0.0,79,0.00,,,0.00,WUHU216HW,2013-02-04 08:05:00,
2013-02-04 02:10:00,25.6,20.0,29.92,North,0,0.0,0.0,79,0.00,,,0.00,WUHU216HW,2013-02-04 08:10:00,
2013-02-04 02:15:00,25.7,20.1,29.92,North,0,0.0,0.0,79,0.00,,,0.00,WUHU216HW,2013-02-04 08:15:00,
2013-02-04 02:20:00,25.7,20.1,29.91,South,180,0.2,0.2,79,0.00,,,0.00,WUHU216HW,2013-02-04 08:20:00,
2013-02-04 02:25:00,25.7,20.1,29.91,South,180,0.0,0.2,79,0.00,,,0.00,WUHU216HW,2013-02-04 08:25:00,
2013-02-04 02:54:00,25.9,20.3,29.90,South,180,0.3,0.4,79,0.00,,,0.00,WUHU216HW,2013-02-04 08:54:00,
2013-02-04 02:59:00,25.9,20.3,29.90,South,180,0.3,0.4,79,0.00,,,0.00,WUHU216HW,2013-02-04 08:59:00,
2013-02-04 03:04:00,26.1,20.4,29.90,South,180,0.2,0.2,79,0.00,,,0.00,WUHU216HW,2013-02-04 09:04:00,
2013-02-04 03:09:00,26.1,20.4,29.89,South,180,0.8,1.1,79,0.00,,,0.00,WUHU216HW,2013-02-04 09:09:00,
2013-02-04 03:14:00,26.1,20.4,29.89,South,180,0.5,1.1,79,0.00,,,0.00,WUHU216HW,2013-02-04 09:14:00,
2013-02-04 03:19:00,26.1,20.4,29.89,South,180,0.2,0.2,79,0.00,,,0.00,WUHU216HW,2013-02-04 09:19:00,
2013-02-04 03:24:00,26.3,20.9,29.89,North,0,0.0,0.0,80,0.00,,,0.00,WUHU216HW,2013-02-04 09:24:00,
2013-02-04 03:29:00,26.1,20.4,29.88,North,0,0.0,0.0,79,0.00,,,0.00,WUHU216HW,2013-02-04 09:29:00,
2013-02-04 03:34:00,26.1,20.8,29.88,North,0,0.0,0.0,80,0.00,,,0.00,WUHU216HW,2013-02-04 09:34:00,
2013-02-04 03:39:00,26.3,20.9,29.88,South,180,0.2,0.2,80,0.00,,,0.00,WUHU216HW,2013-02-04 09:39:00,
2013-02-04 03:44:00,26.3,20.9,29.88,North,0,0.0,0.0,80,0.00,,,0.00,WUHU216HW,2013-02-04 09:44:00,
2013-02-04 03:49:00,26.5,21.1,29.88,South,180,0.2,0.2,80,0.00,,,0.00,WUHU216HW,2013-02-04 09:49:00,
2013-02-04 03:54:00,26.5,21.1,29.88,North,0,0.0,0.0,80,0.00,,,0.00,WUHU216HW,2013-02-04 09:54:00,
2013-02-04 03:59:00,26.5,21.1,29.88,North,0,0.0,0.0,80,0.00,,,0.00,WUHU216HW,2013-02-04 09:59:00,
2013-02-04 04:04:00,26.6,21.5,29.88,North,0,0.0,0.0,81,0.00,,,0.00,WUHU216HW,2013-02-04 10:04:00,
2013-02-04 04:09:00,26.6,21.5,29.88,North,0,0.0,0.0,81,0.00,,,0.00,WUHU216HW,2013-02-04 10:09:00,
2013-02-04 04:14:00,26.8,21.7,29.88,North,0,0.0,0.0,81,0.00,,,0.00,WUHU216HW,2013-02-04 10:14:00,
2013-02-04 04:19:00,26.8,21.7,29.88,North,0,0.0,0.0,81,0.00,,,0.00,WUHU216HW,2013-02-04 10:19:00,
2013-02-04 04:24:00,26.8,21.7,29.87,North,0,0.0,0.0,81,0.00,,,0.00,WUHU216HW,2013-02-04 10:24:00,
2013-02-04 04:29:00,26.8,22.0,29.87,South,180,0.4,0.4,82,0.00,,,0.00,WUHU216HW,2013-02-04 10:29:00,
2013-02-04 04:34:00,26.8,21.7,29.87,South,180,0.2,0.2,81,0.00,,,0.00,WUHU216HW,2013-02-04 10:34:00,
2013-02-04 04:39:00,27.0,22.1,29.87,South,180,0.2,0.2,82,0.00,,,0.00,WUHU216HW,2013-02-04 10:39:00,
2013-02-04 04:44:00,27.0,22.1,29.87,South,180,0.2,0.2,82,0.00,,,0.00,WUHU216HW,2013-02-04 10:44:00,
2013-02-04 04:49:00,27.2,22.3,29.86,South,180,0.4,0.4,82,0.00,,,0.00,WUHU216HW,2013-02-04 10:49:00,
2013-02-04 04:54:00,27.4,22.5,29.86,North,0,0.0,0.0,82,0.00,,,0.00,WUHU216HW,2013-02-04 10:54:00,
2013-02-04 04:59:00,27.4,22.5,29.86,North,0,0.0,0.0,82,0.00,,,0.00,WUHU216HW,2013-02-04 10:59:00,
2013-02-04 05:04:00,27.4,22.5,29.86,North,0,0.0,0.0,82,0.00,,,0.00,WUHU216HW,2013-02-04 11:04:00,
2013-02-04 05:09:00,27.5,22.7,29.86,South,180,0.2,0.2,82,0.00,,,0.00,WUHU216HW,2013-02-04 11:09:00,
2013-02-04 05:14:00,27.5,22.7,29.86,North,0,0.0,0.0,82,0.00,,,0.00,WUHU216HW,2013-02-04 11:14:00,
2013-02-04 05:19:00,27.5,22.7,29.86,North,0,0.0,0.0,82,0.00,,,0.00,WUHU216HW,2013-02-04 11:19:00,
2013-02-04 05:24:00,27.5,22.7,29.86,North,0,0.0,0.0,82,0.00,,,0.00,WUHU216HW,2013-02-04 11:24:00,
2013-02-04 05:29:00,27.7,22.9,29.86,North,0,0.0,0.0,82,0.00,,,0.00,WUHU216HW,2013-02-04 11:29:00,
2013-02-04 05:34:00,27.7,22.9,29.86,North,0,0.0,0.0,82,0.00,,,0.00,WUHU216HW,2013-02-04 11:34:00,
2013-02-04 05:39:00,27.9,23.0,29.86,North,0,0.0,0.0,82,0.00,,,0.00,WUHU216HW,2013-02-04 11:39:00,
2013-02-04 05:44:00,28.1,23.6,29.86,North,0,0.0,0.0,83,0.00,,,0.00,WUHU216HW,2013-02-04 11:44:00,
2013-02-04 05:49:00,28.1,23.2,29.86,South,180,0.4,0.4,82,0.00,,,0.00,WUHU216HW,2013-02-04 11:49:00,
2013-02-04 05:54:00,28.1,23.6,29.86,North,0,0.0,0.0,83,0.00,,,0.00,WUHU216HW,2013-02-04 11:54:00,
2013-02-04 05:59:00,28.3,23.4,29.86,South,180,0.2,0.2,82,0.00,,,0.00,WUHU216HW,2013-02-04 11:59:00,
2013-02-04 06:04:00,28.1,23.2,29.85,North,0,0.0,0.0,82,0.00,,,0.00,WUHU216HW,2013-02-04 12:04:00,
2013-02-04 06:09:00,28.1,23.2,29.86,North,0,0.0,0.0,82,0.00,,,0.00,WUHU216HW,2013-02-04 12:09:00,
2013-02-04 06:14:00,28.1,23.2,29.86,North,0,0.0,0.0,82,0.00,,,0.00,WUHU216HW,2013-02-04 12:14:00,
2013-02-04 06:19:00,28.1,23.2,29.85,North,0,0.0,0.0,82,0.00,,,0.00,WUHU216HW,2013-02-04 12:19:00,
2013-02-04 06:24:00,28.1,23.2,29.85,North,0,0.0,0.0,82,0.00,,,0.00,WUHU216HW,2013-02-04 12:24:00,
2013-02-04 06:29:00,28.3,23.8,29.85,North,0,0.0,0.0,83,0.00,,,0.00,WUHU216HW,2013-02-04 12:29:00,
2013-02-04 06:34:00,28.3,23.8,29.85,South,180,0.4,0.4,83,0.00,,,0.00,WUHU216HW,2013-02-04 12:34:00,
2013-02-04 06:39:00,28.1,23.2,29.85,South,180,0.3,0.4,82,0.00,,,0.00,WUHU216HW,2013-02-04 12:39:00,
2013-02-04 06:44:00,28.1,23.2,29.85,South,180,0.7,0.7,82,0.00,,,0.00,WUHU216HW,2013-02-04 12:44:00,
2013-02-04 06:49:00,28.1,23.2,29.85,North,0,0.0,0.0,82,0.00,,,0.00,WUHU216HW,2013-02-04 12:49:00,
2013-02-04 06:54:00,28.1,23.2,29.85,North,0,0.0,0.0,82,0.00,,,0.00,WUHU216HW,2013-02-04 12:54:00,
2013-02-04 06:59:00,28.3,23.4,29.85,North,0,0.0,0.0,82,0.00,,,0.00,WUHU216HW,2013-02-04 12:59:00,
2013-02-04 07:04:00,28.3,23.4,29.85,South,180,0.2,0.2,82,0.00,,,0.00,WUHU216HW,2013-02-04 13:04:00,
2013-02-04 07:09:00,28.4,23.6,29.85,North,0,0.0,0.0,82,0.00,,,0.00,WUHU216HW,2013-02-04 13:09:00,
2013-02-04 07:14:00,28.4,23.6,29.84,South,180,0.3,0.4,82,0.00,,,0.00,WUHU216HW,2013-02-04 13:14:00,
2013-02-04 07:19:00,28.4,23.6,29.84,South,180,0.4,0.7,82,0.00,,,0.00,WUHU216HW,2013-02-04 13:19:00,
2013-02-04 07:24:00,28.4,23.6,29.84,South,180,0.2,0.2,82,0.00,,,0.00,WUHU216HW,2013-02-04 13:24:00,
2013-02-04 07:29:00,28.4,23.6,29.84,South,180,0.2,0.2,82,0.00,,,0.00,WUHU216HW,2013-02-04 13:29:00,
2013-02-04 07:55:00,29.0,24.1,29.83,South,180,0.5,1.3,82,0.00,,,0.00,WUHU216HW,2013-02-04 13:55:00,
2013-02-04 08:00:00,29.2,24.0,29.84,South,180,0.2,0.2,81,0.00,,,0.00,WUHU216HW,2013-02-04 14:00:00,
2013-02-04 08:05:00,29.2,24.3,29.84,South,180,0.2,0.2,82,0.00,,,0.00,WUHU216HW,2013-02-04 14:05:00,
2013-02-04 08:10:00,29.3,24.5,29.84,North,0,0.0,0.0,82,0.00,,,0.00,WUHU216HW,2013-02-04 14:10:00,
2013-02-04 08:15:00,29.3,24.2,29.84,South,180,0.4,0.7,81,0.00,,,0.00,WUHU216HW,2013-02-04 14:15:00,
2013-02-04 08:20:00,29.3,24.2,29.84,South,180,0.5,1.1,81,0.00,,,0.00,WUHU216HW,2013-02-04 14:20:00,
2013-02-04 08:25:00,29.5,24.4,29.84,South,180,0.3,0.4,81,0.00,,,0.00,WUHU216HW,2013-02-04 14:25:00,
2013-02-04 08:30:00,29.5,24.4,29.84,South,180,0.3,0.4,81,0.00,,,0.00,WUHU216HW,2013-02-04 14:30:00,
2013-02-04 08:35:00,29.9,24.8,29.84,South,180,0.2,0.2,81,0.00,,,0.00,WUHU216HW,2013-02-04 14:35:00,
2013-02-04 08:40:00,29.9,24.5,29.84,South,180,0.3,0.4,80,0.00,,,0.00,WUHU216HW,2013-02-04 14:40:00,
2013-02-04 08:45:00,29.9,24.5,29.84,South,180,0.5,0.7,80,0.00,,,0.00,WUHU216HW,2013-02-04 14:45:00,
2013-02-04 08:50:00,29.7,24.3,29.83,North,0,0.0,0.0,80,0.00,,,0.00,WUHU216HW,2013-02-04 14:50:00,
2013-02-04 08:55:00,29.9,24.5,29.83,South,180,0.3,0.4,80,0.00,,,0.00,WUHU216HW,2013-02-04 14:55:00,
2013-02-04 09:00:00,30.1,24.7,29.83,North,0,0.0,0.0,80,0.00,,,0.00,WUHU216HW,2013-02-04 15:00:00,
2013-02-04 09:05:00,30.1,24.7,29.83,South,180,0.4,0.7,80,0.00,,,0.00,WUHU216HW,2013-02-04 15:05:00,
2013-02-04 09:10:00,30.2,24.8,29.83,South,180,0.2,0.2,80,0.00,,,0.00,WUHU216HW,2013-02-04 15:10:00,
2013-02-04 09:15:00,30.2,24.8,29.83,South,180,0.3,0.4,80,0.00,,,0.00,WUHU216HW,2013-02-04 15:15:00,
2013-02-04 09:20:00,30.4,25.0,29.83,South,180,0.8,1.1,80,0.00,,,0.00,WUHU216HW,2013-02-04 15:20:00,
2013-02-04 09:25:00,30.6,24.8,29.83,South,180,0.3,0.4,79,0.00,,,0.00,WUHU216HW,2013-02-04 15:25:00,
2013-02-04 09:30:00,30.6,24.8,29.83,South,180,0.3,0.4,79,0.00,,,0.00,WUHU216HW,2013-02-04 15:30:00,
2013-02-04 09:35:00,30.6,24.8,29.82,South,180,1.1,2.5,79,0.00,,,0.00,WUHU216HW,2013-02-04 15:35:00,
2013-02-04 09:40:00,31.0,25.2,29.82,South,180,0.4,0.4,79,0.00,,,0.00,WUHU216HW,2013-02-04 15:40:00,
2013-02-04 09:45:00,31.0,25.2,29.82,South,180,0.3,0.4,79,0.00,,,0.00,WUHU216HW,2013-02-04 15:45:00,
2013-02-04 09:50:00,31.1,25.4,29.82,South,180,1.0,1.8,79,0.00,,,0.00,WUHU216HW,2013-02-04 15:50:00,
2013-02-04 09:55:00,31.1,25.1,29.82,South,180,0.6,1.3,78,0.00,,,0.00,WUHU216HW,2013-02-04 15:55:00,
2013-02-04 10:00:00,31.3,25.3,29.82,South,180,0.9,1.1,78,0.00,,,0.00,WUHU216HW,2013-02-04 16:00:00,
2013-02-04 10:05:00,31.3,25.3,29.82,South,180,0.2,0.2,78,0.00,,,0.00,WUHU216HW,2013-02-04 16:05:00,
2013-02-04 10:10:00,31.5,25.5,29.82,South,180,0.2,0.2,78,0.00,,,0.00,WUHU216HW,2013-02-04 16:10:00,
2013-02-04 10:15:00,31.7,25.7,29.82,South,180,0.3,0.4,78,0.00,,,0.00,WUHU216HW,2013-02-04 16:15:00,
2013-02-04 10:20:00,31.9,25.8,29.82,South,180,0.2,0.2,78,0.00,,,0.00,WUHU216HW,2013-02-04 16:20:00,
2013-02-04 10:25:00,32.0,26.0,29.82,South,180,0.3,0.4,78,0.00,,,0.00,WUHU216HW,2013-02-04 16:25:00,
2013-02-04 10:30:00,32.0,26.0,29.82,South,180,0.5,0.9,78,0.00,,,0.00,WUHU216HW,2013-02-04 16:30:00,
2013-02-04 10:35:00,32.0,26.0,29.82,South,180,0.2,0.2,78,0.00,,,0.00,WUHU216HW,2013-02-04 16:35:00,
2013-02-04 10:40:00,32.0,26.0,29.82,South,180,0.2,0.2,78,0.00,,,0.00,WUHU216HW,2013-02-04 16:40:00,
2013-02-04 10:45:00,32.2,26.2,29.82,South,180,0.4,0.7,78,0.00,,,0.00,WUHU216HW,2013-02-04 16:45:00,
2013-02-04 10:50:00,32.2,26.2,29.82,South,180,0.2,0.2,78,0.00,,,0.00,WUHU216HW,2013-02-04 16:50:00,
2013-02-04 10:55:00,32.6,26.5,29.82,South,180,0.3,0.4,78,0.00,,,0.00,WUHU216HW,2013-02-04 16:55:00,
2013-02-04 11:00:00,32.8,26.6,29.82,South,180,0.4,0.7,78,0.00,,,0.00,WUHU216HW,2013-02-04 17:00:00,
2013-02-04 11:05:00,32.8,26.3,29.81,South,180,0.5,0.9,77,0.00,,,0.00,WUHU216HW,2013-02-04 17:05:00,
2013-02-04 11:10:00,32.8,26.3,29.81,South,180,0.4,0.7,77,0.00,,,0.00,WUHU216HW,2013-02-04 17:10:00,
2013-02-04 11:15:00,32.8,26.3,29.81,South,180,0.7,0.9,77,0.00,,,0.00,WUHU216HW,2013-02-04 17:15:00,
2013-02-04 11:20:00,32.9,26.5,29.81,South,180,0.5,0.9,77,0.00,,,0.00,WUHU216HW,2013-02-04 17:20:00,
2013-02-04 11:25:00,32.9,26.5,29.81,South,180,0.6,1.6,77,0.00,,,0.00,WUHU216HW,2013-02-04 17:25:00,
2013-02-04 11:30:00,32.9,26.5,29.81,South,180,0.3,0.4,77,0.00,,,0.00,WUHU216HW,2013-02-04 17:30:00,
2013-02-04 11:35:00,33.5,27.0,29.81,South,180,0.4,0.4,77,0.00,,,0.00,WUHU216HW,2013-02-04 17:35:00,
2013-02-04 11:40:00,33.5,26.6,29.81,South,180,0.2,0.2,76,0.00,,,0.00,WUHU216HW,2013-02-04 17:40:00,
2013-02-04 11:45:00,33.5,26.6,29.81,South,180,0.3,0.4,76,0.00,,,0.00,WUHU216HW,2013-02-04 17:45:00,
2013-02-04 11:50:00,33.5,26.6,29.81,South,180,0.2,0.2,76,0.00,,,0.00,WUHU216HW,2013-02-04 17:50:00,
2013-02-04 11:55:00,33.5,26.6,29.82,South,180,0.4,0.4,76,0.00,,,0.00,WUHU216HW,2013-02-04 17:55:00,
2013-02-04 12:00:00,33.5,26.6,29.81,North,0,0.0,0.0,76,0.00,,,0.00,WUHU216HW,2013-02-04 18:00:00,
2013-02-04 12:05:00,33.8,26.6,29.81,North,0,0.0,0.0,75,0.00,,,0.00,WUHU216HW,2013-02-04 18:05:00,
2013-02-04 12:10:00,33.8,26.6,29.80,South,180,0.2,0.2,75,0.00,,,0.00,WUHU216HW,2013-02-04 18:10:00,
2013-02-04 12:15:00,33.8,26.6,29.80,North,0,0.0,0.0,75,0.00,,,0.00,WUHU216HW,2013-02-04 18:15:00,
2013-02-04 12:20:00,33.8,26.6,29.81,South,180,0.2,0.2,75,0.00,,,0.00,WUHU216HW,2013-02-04 18:20:00,
2013-02-04 12:25:00,33.8,26.6,29.81,North,0,0.0,0.0,75,0.00,,,0.00,WUHU216HW,2013-02-04 18:25:00,
2013-02-04 12:30:00,33.8,26.6,29.81,South,180,0.3,0.4,75,0.00,,,0.00,WUHU216HW,2013-02-04 18:30:00,
2013-02-04 12:35:00,34.0,26.8,29.80,North,0,0.0,0.0,75,0.00,,,0.00,WUHU216HW,2013-02-04 18:35:00,
2013-02-04 12:40:00,34.0,26.8,29.80,North,0,0.0,0.0,75,0.00,,,0.00,WUHU216HW,2013-02-04 18:40:00,
2013-02-04 12:45:00,33.8,26.3,29.80,South,180,1.1,1.1,74,0.00,,,0.00,WUHU216HW,2013-02-04 18:45:00,
2013-02-04 12:50:00,33.5,26.0,29.80,South,180,0.2,0.2,74,0.00,,,0.00,WUHU216HW,2013-02-04 18:50:00,
2013-02-04 12:55:00,33.3,25.8,29.80,North,0,0.0,0.0,74,0.00,,,0.00,WUHU216HW,2013-02-04 18:55:00,
2013-02-04 13:00:00,32.9,25.5,29.80,North,0,0.0,0.0,74,0.00,,,0.00,WUHU216HW,2013-02-04 19:00:00,
2013-02-04 13:05:00,32.8,25.7,29.80,South,180,0.2,0.2,75,0.00,,,0.00,WUHU216HW,2013-02-04 19:05:00,
2013-02-04 13:10:00,32.6,25.8,29.80,North,0,0.0,0.0,76,0.00,,,0.00,WUHU216HW,2013-02-04 19:10:00,
2013-02-04 13:15:00,32.2,25.5,29.80,North,0,0.0,0.0,76,0.00,,,0.00,WUHU216HW,2013-02-04 19:15:00,
2013-02-04 13:20:00,32.2,25.5,29.80,North,0,0.0,0.0,76,0.00,,,0.00,WUHU216HW,2013-02-04 19:20:00,
2013-02-04 13:25:00,32.4,26.0,29.80,South,180,0.3,0.4,77,0.00,,,0.00,WUHU216HW,2013-02-04 19:25:00,
2013-02-04 13:30:00,32.4,26.0,29.80,South,180,0.2,0.2,77,0.00,,,0.00,WUHU216HW,2013-02-04 19:30:00,
2013-02-04 13:35:00,32.4,26.0,29.80,South,180,0.5,0.7,77,0.00,,,0.00,WUHU216HW,2013-02-04 19:35:00,
2013-02-04 13:40:00,32.2,25.8,29.81,South,180,0.6,0.9,77,0.00,,,0.00,WUHU216HW,2013-02-04 19:40:00,
2013-02-04 13:45:00,32.2,25.8,29.81,South,180,0.4,0.7,77,0.00,,,0.00,WUHU216HW,2013-02-04 19:45:00,
2013-02-04 13:50:00,32.2,25.8,29.80,South,180,0.7,1.1,77,0.00,,,0.00,WUHU216HW,2013-02-04 19:50:00,
2013-02-04 13:55:00,32.0,25.7,29.80,South,180,0.5,0.7,77,0.00,,,0.00,WUHU216HW,2013-02-04 19:55:00,
2013-02-04 14:00:00,32.0,26.0,29.80,South,180,0.4,0.4,78,0.00,,,0.00,WUHU216HW,2013-02-04 20:00:00,
2013-02-04 14:05:00,32.2,26.2,29.81,South,180,0.5,0.7,78,0.00,,,0.00,WUHU216HW,2013-02-04 20:05:00,
2013-02-04 14:10:00,32.0,25.7,29.81,South,180,0.7,1.1,77,0.00,,,0.00,WUHU216HW,2013-02-04 20:10:00,
2013-02-04 14:15:00,32.0,26.0,29.82,South,180,0.9,1.8,78,0.00,,,0.00,WUHU216HW,2013-02-04 20:15:00,
2013-02-04 14:20:00,32.0,25.7,29.81,South,180,0.4,0.7,77,0.00,,,0.00,WUHU216HW,2013-02-04 20:20:00,
2013-02-04 14:25:00,32.0,26.3,29.82,South,180,0.4,0.9,79,0.00,,,0.00,WUHU216HW,2013-02-04 20:25:00,
2013-02-04 14:30:00,32.0,26.3,29.82,South,180,0.6,0.7,79,0.00,,,0.00,WUHU216HW,2013-02-04 20:30:00,
2013-02-04 14:35:00,32.0,26.0,29.82,South,180,0.6,0.9,78,0.00,,,0.00,WUHU216HW,2013-02-04 20:35:00,
2013-02-04 14:40:00,32.0,26.3,29.82,South,180,0.3,0.4,79,0.00,,,0.00,WUHU216HW,2013-02-04 20:40:00,
2013-02-04 14:45:00,31.9,25.8,29.82,South,180,0.5,1.1,78,0.00,,,0.00,WUHU216HW,2013-02-04 20:45:00,
2013-02-04 14:50:00,31.5,25.7,29.82,South,180,0.9,2.5,79,0.00,,,0.00,WUHU216HW,2013-02-04 20:50:00,
2013-02-04 14:55:00,31.3,25.6,29.82,South,180,0.6,1.1,79,0.00,,,0.00,WUHU216HW,2013-02-04 20:55:00,
2013-02-04 15:00:00,31.1,25.7,29.82,South,180,0.5,1.3,80,0.00,,,0.00,WUHU216HW,2013-02-04 21:00:00,
2013-02-04 15:05:00,31.0,25.8,29.82,South,180,0.3,0.4,81,0.00,,,0.00,WUHU216HW,2013-02-04 21:05:00,
2013-02-04 15:10:00,31.3,25.9,29.81,South,180,0.6,0.7,80,0.00,,,0.00,WUHU216HW,2013-02-04 21:10:00,
2013-02-04 15:15:00,31.1,25.4,29.81,South,180,0.3,0.4,79,0.00,,,0.00,WUHU216HW,2013-02-04 21:15:00,
2013-02-04 15:20:00,31.0,25.6,29.81,South,180,0.7,1.1,80,0.00,,,0.00,WUHU216HW,2013-02-04 21:20:00,
2013-02-04 15:25:00,30.8,25.0,29.81,South,180,0.3,0.4,79,0.00,,,0.00,WUHU216HW,2013-02-04 21:25:00,
2013-02-04 15:30:00,30.6,24.8,29.80,South,180,0.4,0.4,79,0.00,,,0.00,WUHU216HW,2013-02-04 21:30:00,
2013-02-04 15:35:00,30.6,25.2,29.81,South,180,0.4,0.4,80,0.00,,,0.00,WUHU216HW,2013-02-04 21:35:00,
2013-02-04 15:40:00,30.6,24.8,29.81,South,180,0.3,0.4,79,0.00,,,0.00,WUHU216HW,2013-02-04 21:40:00,
2013-02-04 15:46:00,30.4,24.7,29.81,South,180,0.3,0.4,79,0.00,,,0.00,WUHU216HW,2013-02-04 21:46:00,
2013-02-04 15:51:00,30.4,25.0,29.81,South,180,0.4,0.7,80,0.00,,,0.00,WUHU216HW,2013-02-04 21:51:00,
2013-02-04 15:56:00,30.4,24.7,29.81,South,180,0.8,1.3,79,0.00,,,0.00,WUHU216HW,2013-02-04 21:56:00,
2013-02-04 16:01:00,30.6,24.8,29.81,South,180,0.5,1.1,79,0.00,,,0.00,WUHU216HW,2013-02-04 22:01:00,
2013-02-04 16:06:00,30.2,24.2,29.80,NW,306,0.8,1.3,78,0.00,,,0.00,WUHU216HW,2013-02-04 22:06:00,
2013-02-04 16:11:00,30.2,24.5,29.81,North,351,0.4,0.7,79,0.00,,,0.00,WUHU216HW,2013-02-04 22:11:00,
2013-02-04 16:16:00,30.4,24.7,29.81,NNW,338,0.4,0.7,79,0.00,,,0.00,WUHU216HW,2013-02-04 22:16:00,
2013-02-04 16:21:00,30.4,24.7,29.81,NE,45,0.2,0.2,79,0.00,,,0.00,WUHU216HW,2013-02-04 22:21:00,
2013-02-04 16:26:00,30.4,24.7,29.82,NNW,338,0.8,0.9,79,0.00,,,0.00,WUHU216HW,2013-02-04 22:26:00,
2013-02-04 16:31:00,30.2,24.5,29.82,North,9,0.3,0.4,79,0.00,,,0.00,WUHU216HW,2013-02-04 22:31:00,
2013-02-04 16:36:00,30.4,24.4,29.82,NNW,334,0.7,2.0,78,0.00,,,0.00,WUHU216HW,2013-02-04 22:36:00,
2013-02-04 16:41:00,30.4,24.4,29.82,NNW,341,0.6,0.9,78,0.00,,,0.00,WUHU216HW,2013-02-04 22:41:00,
2013-02-04 16:46:00,30.4,24.0,29.83,NW,316,0.2,0.2,77,0.00,,,0.00,WUHU216HW,2013-02-04 22:46:00,
2013-02-04 16:51:00,30.2,24.2,29.83,NNW,328,0.4,0.7,78,0.00,,,0.00,WUHU216HW,2013-02-04 22:51:00,
2013-02-04 16:56:00,30.4,24.4,29.83,NNW,329,1.1,1.8,78,0.00,,,0.00,WUHU216HW,2013-02-04 22:56:00,
2013-02-04 17:01:00,30.2,24.5,29.84,NNW,345,1.1,2.2,79,0.00,,,0.00,WUHU216HW,2013-02-04 23:01:00,
2013-02-04 17:06:00,29.9,24.1,29.84,NNW,333,1.4,1.8,79,0.00,,,0.00,WUHU216HW,2013-02-04 23:06:00,
2013-02-04 17:11:00,29.7,23.9,29.84,NNW,333,1.4,2.2,79,0.00,,,0.00,WUHU216HW,2013-02-04 23:11:00,
2013-02-04 17:16:00,29.3,24.2,29.84,NNW,344,0.9,1.1,81,0.00,,,0.00,WUHU216HW,2013-02-04 23:16:00,
2013-02-04 17:21:00,29.3,24.2,29.85,NW,308,1.1,1.8,81,0.00,,,0.00,WUHU216HW,2013-02-04 23:21:00,
2013-02-04 17:26:00,29.2,24.0,29.85,NNW,338,0.5,1.1,81,0.00,,,0.00,WUHU216HW,2013-02-04 23:26:00,
2013-02-04 17:31:00,29.2,24.0,29.85,NW,324,0.9,2.2,81,0.00,,,0.00,WUHU216HW,2013-02-04 23:31:00,
2013-02-04 17:36:00,29.2,24.0,29.85,NNW,328,1.1,1.8,81,0.00,,,0.00,WUHU216HW,2013-02-04 23:36:00,
2013-02-04 17:41:00,29.0,23.9,29.86,NNW,338,1.4,1.8,81,0.00,,,0.00,WUHU216HW,2013-02-04 23:41:00,
2013-02-04 17:46:00,29.0,23.9,29.86,NNW,344,0.5,0.9,81,0.00,,,0.00,WUHU216HW,2013-02-04 23:46:00,
2013-02-04 17:51:00,28.8,23.7,29.86,NW,314,1.3,2.5,81,0.00,,,0.00,WUHU216HW,2013-02-04 23:51:00,
2013-02-04 17:56:00,28.4,23.0,29.87,NNW,337,1.4,1.8,80,0.00,,,0.00,WUHU216HW,2013-02-04 23:56:00,
2013-02-04 18:01:00,28.4,23.3,29.87,NW,325,1.3,1.8,81,0.00,,,0.00,WUHU216HW,2013-02-05 00:01:00,
2013-02-04 18:06:00,28.3,23.1,29.87,NNW,336,1.0,1.1,81,0.00,,,0.00,WUHU216HW,2013-02-05 00:06:00,
2013-02-04 18:11:00,28.1,22.7,29.87,NW,320,0.8,1.1,80,0.00,,,0.00,WUHU216HW,2013-02-05 00:11:00,
2013-02-04 18:16:00,28.1,22.7,29.87,NNW,338,0.8,1.1,80,0.00,,,0.00,WUHU216HW,2013-02-05 00:16:00,
2013-02-04 18:21:00,28.1,22.7,29.87,NW,324,1.7,3.1,80,0.00,,,0.00,WUHU216HW,2013-02-05 00:21:00,
2013-02-04 18:26:00,27.7,22.1,29.87,NNW,327,1.4,2.7,79,0.00,,,0.00,WUHU216HW,2013-02-05 00:26:00,
2013-02-04 18:31:00,27.4,21.7,29.88,NW,321,1.8,2.5,79,0.00,,,0.00,WUHU216HW,2013-02-05 00:31:00,
2013-02-04 18:36:00,27.2,21.5,29.88,NNW,348,3.0,4.0,79,0.00,,,0.00,WUHU216HW,2013-02-05 00:36:00,
2013-02-04 18:41:00,27.2,21.5,29.88,WNW,299,0.9,2.0,79,0.00,,,0.00,WUHU216HW,2013-02-05 00:41:00,
2013-02-04 18:46:00,27.0,21.3,29.89,NNW,329,1.1,2.2,79,0.00,,,0.00,WUHU216HW,2013-02-05 00:46:00,
2013-02-04 18:51:00,26.6,20.6,29.89,NW,325,1.2,2.2,78,0.00,,,0.00,WUHU216HW,2013-02-05 00:51:00,
2013-02-04 18:56:00,26.3,20.4,29.89,NNW,334,0.8,1.1,78,0.00,,,0.00,WUHU216HW,2013-02-05 00:56:00,
2013-02-04 19:01:00,26.1,20.2,29.89,NNW,343,0.8,1.1,78,0.00,,,0.00,WUHU216HW,2013-02-05 01:01:00,
2013-02-04 19:06:00,26.1,20.4,29.89,NNW,338,0.8,1.8,79,0.00,,,0.00,WUHU216HW,2013-02-05 01:06:00,
2013-02-04 19:11:00,25.9,20.0,29.89,NNW,336,1.1,2.2,78,0.00,,,0.00,WUHU216HW,2013-02-05 01:11:00,
2013-02-04 19:16:00,25.9,20.0,29.88,NNW,327,1.5,2.7,78,0.00,,,0.00,WUHU216HW,2013-02-05 01:16:00,
2013-02-04 19:21:00,25.7,19.5,29.88,NW,322,1.3,2.7,77,0.00,,,0.00,WUHU216HW,2013-02-05 01:21:00,
2013-02-04 19:26:00,25.6,19.6,29.88,NNW,335,0.9,1.1,78,0.00,,,0.00,WUHU216HW,2013-02-05 01:26:00,
2013-02-04 19:31:00,25.6,19.6,29.88,NW,314,0.6,1.1,78,0.00,,,0.00,WUHU216HW,2013-02-05 01:31:00,
2013-02-04 19:36:00,25.4,19.4,29.88,NNW,338,0.5,1.1,78,0.00,,,0.00,WUHU216HW,2013-02-05 01:36:00,
2013-02-04 19:41:00,25.4,19.4,29.88,NW,321,1.0,2.0,78,0.00,,,0.00,WUHU216HW,2013-02-05 01:41:00,
2013-02-04 19:46:00,25.2,19.3,29.89,NW,316,0.7,1.1,78,0.00,,,0.00,WUHU216HW,2013-02-05 01:46:00,
2013-02-04 19:51:00,25.0,19.2,29.89,NNW,328,0.4,0.9,78,0.00,,,0.00,WUHU216HW,2013-02-05 01:51:00,
2013-02-04 19:56:00,25.0,19.2,29.88,NNW,333,0.5,1.1,78,0.00,,,0.00,WUHU216HW,2013-02-05 01:56:00,
2013-02-04 20:01:00,24.8,18.6,29.89,NW,315,0.7,1.1,77,0.00,,,0.00,WUHU216HW,2013-02-05 02:01:00,
2013-02-04 20:06:00,24.7,18.8,29.89,NW,312,0.5,1.1,78,0.00,,,0.00,WUHU216HW,2013-02-05 02:06:00,
2013-02-04 20:11:00,24.7,18.8,29.89,NNW,338,0.6,0.7,78,0.00,,,0.00,WUHU216HW,2013-02-05 02:11:00,
2013-02-04 20:16:00,24.7,18.8,29.89,North,0,0.0,0.0,78,0.00,,,0.00,WUHU216HW,2013-02-05 02:16:00,
2013-02-04 20:21:00,24.7,19.1,29.90,NNW,338,0.4,0.4,79,0.00,,,0.00,WUHU216HW,2013-02-05 02:21:00,
2013-02-04 20:26:00,24.7,19.1,29.90,NW,311,0.4,0.4,79,0.00,,,0.00,WUHU216HW,2013-02-05 02:26:00,
2013-02-04 20:31:00,24.5,18.9,29.90,NW,321,0.6,0.7,79,0.00,,,0.00,WUHU216HW,2013-02-05 02:31:00,
2013-02-04 20:36:00,24.5,18.6,29.90,NNW,338,0.4,0.4,78,0.00,,,0.00,WUHU216HW,2013-02-05 02:36:00,
2013-02-04 20:41:00,24.3,18.5,29.91,NNW,330,0.3,0.4,78,0.00,,,0.00,WUHU216HW,2013-02-05 02:41:00,
2013-02-04 20:46:00,24.1,17.9,29.91,NNW,338,0.6,1.1,77,0.00,,,0.00,WUHU216HW,2013-02-05 02:46:00,
2013-02-04 20:51:00,23.8,17.7,29.91,NNW,338,0.4,0.9,77,0.00,,,0.00,WUHU216HW,2013-02-05 02:51:00,
2013-02-04 20:56:00,23.8,17.7,29.91,WNW,302,0.4,0.7,77,0.00,,,0.00,WUHU216HW,2013-02-05 02:56:00,
2013-02-04 21:01:00,23.8,17.7,29.91,North,0,0.0,0.0,77,0.00,,,0.00,WUHU216HW,2013-02-05 03:01:00,
2013-02-04 21:06:00,23.4,17.3,29.91,NNW,334,0.5,0.9,77,0.00,,,0.00,WUHU216HW,2013-02-05 03:06:00,
2013-02-04 21:11:00,23.4,17.3,29.90,NW,322,0.4,0.4,77,0.00,,,0.00,WUHU216HW,2013-02-05 03:11:00,
2013-02-04 21:16:00,23.2,17.1,29.90,NNW,338,0.7,1.1,77,0.00,,,0.00,WUHU216HW,2013-02-05 03:16:00,
2013-02-04 21:21:00,23.2,17.1,29.90,NW,326,0.6,0.7,77,0.00,,,0.00,WUHU216HW,2013-02-05 03:21:00,
2013-02-04 21:26:00,23.2,17.1,29.89,NNW,335,0.4,0.7,77,0.00,,,0.00,WUHU216HW,2013-02-05 03:26:00,
2013-02-04 21:31:00,23.2,17.1,29.90,NW,325,0.9,1.6,77,0.00,,,0.00,WUHU216HW,2013-02-05 03:31:00,
2013-02-04 21:36:00,23.0,16.9,29.90,NW,319,0.3,0.4,77,0.00,,,0.00,WUHU216HW,2013-02-05 03:36:00,
2013-02-04 21:41:00,23.0,16.9,29.90,West,278,0.7,1.1,77,0.00,,,0.00,WUHU216HW,2013-02-05 03:41:00,
2013-02-04 21:46:00,23.0,16.9,29.90,NNW,339,1.1,3.4,77,0.00,,,0.00,WUHU216HW,2013-02-05 03:46:00,
2013-02-04 21:51:00,23.0,16.9,29.90,WNW,293,1.1,1.1,77,0.00,,,0.00,WUHU216HW,2013-02-05 03:51:00,
2013-02-04 21:56:00,23.0,16.9,29.90,NNW,333,0.8,1.8,77,0.00,,,0.00,WUHU216HW,2013-02-05 03:56:00,
2013-02-04 22:01:00,22.9,16.8,29.90,NW,323,0.3,0.4,77,0.00,,,0.00,WUHU216HW,2013-02-05 04:01:00,
2013-02-04 22:06:00,22.7,16.6,29.90,NW,312,0.9,1.6,77,0.00,,,0.00,WUHU216HW,2013-02-05 04:06:00,
2013-02-04 22:11:00,22.7,16.6,29.90,NNW,328,0.6,0.9,77,0.00,,,0.00,WUHU216HW,2013-02-05 04:11:00,
2013-02-04 22:16:00,22.7,16.2,29.90,NNW,338,0.8,0.9,76,0.00,,,0.00,WUHU216HW,2013-02-05 04:16:00,
2013-02-04 22:21:00,22.7,16.2,29.90,NNW,338,0.7,0.9,76,0.00,,,0.00,WUHU216HW,2013-02-05 04:21:00,
2013-02-04 22:48:00,22.0,15.2,29.90,NNW,328,0.5,1.1,75,0.00,,,0.00,WUHU216HW,2013-02-05 04:48:00,
2013-02-04 22:53:00,21.8,15.3,29.90,NW,326,0.3,0.4,76,0.00,,,0.00,WUHU216HW,2013-02-05 04:53:00,
2013-02-04 22:58:00,21.8,15.3,29.90,North,0,0.0,0.0,76,0.00,,,0.00,WUHU216HW,2013-02-05 04:58:00,
2013-02-04 23:03:00,21.6,15.1,29.90,NNW,335,0.7,1.6,76,0.00,,,0.00,WUHU216HW,2013-02-05 05:03:00,
2013-02-04 23:08:00,21.4,14.9,29.90,WNW,289,0.6,0.9,76,0.00,,,0.00,WUHU216HW,2013-02-05 05:08:00,
2013-02-04 23:13:00,21.4,14.9,29.90,NW,323,0.8,1.3,76,0.00,,,0.00,WUHU216HW,2013-02-05 05:13:00,
2013-02-04 23:18:00,21.4,14.9,29.90,NW,315,0.3,0.4,76,0.00,,,0.00,WUHU216HW,2013-02-05 05:18:00,
2013-02-04 23:23:00,21.4,14.9,29.90,WNW,293,0.2,0.2,76,0.00,,,0.00,WUHU216HW,2013-02-05 05:23:00,
2013-02-04 23:28:00,21.4,14.7,29.91,NNW,338,0.6,0.9,75,0.00,,,0.00,WUHU216HW,2013-02-05 05:28:00,
2013-02-04 23:33:00,21.2,14.5,29.91,North,0,0.0,0.0,75,0.00,,,0.00,WUHU216HW,2013-02-05 05:33:00,
2013-02-04 23:38:00,21.2,14.5,29.91,West,262,0.3,0.7,75,0.00,,,0.00,WUHU216HW,2013-02-05 05:38:00,
2013-02-04 23:43:00,21.2,14.2,29.91,North,0,0.0,0.0,74,0.00,,,0.00,WUHU216HW,2013-02-05 05:43:00,
2013-02-04 23:48:00,21.2,14.2,29.91,West,270,0.0,0.0,74,0.00,,,0.00,WUHU216HW,2013-02-05 05:48:00,